Hourly Weather Barmotino

Today, 1 October, Thursday

Time Temperature Precipitation Wind Pressure Humidity
00:00 +13°C° 0 mm 3 mps 766 mmHg 53%
01:00 +12°C° 0 mm 3 mps 766 mmHg 53%
02:00 +13°C° 0 mm 2 mps 767 mmHg 53%
03:00 +13°C° 0 mm 2 mps 767 mmHg 53%
04:00 +12°C° 0 mm 2 mps 767 mmHg 53%
05:00 +12°C° 0 mm 2 mps 767 mmHg 53%
06:00 +11°C° 0 mm 3 mps 767 mmHg 52%
07:00 +13°C° 0 mm 3 mps 767 mmHg 48%
08:00 +16°C° 0 mm 3 mps 767 mmHg 44%
09:00 +17°C° 0 mm 3 mps 767 mmHg 40%
10:00 +19°C° 0 mm 3 mps 767 mmHg 37%
11:00 +20°C° 0 mm 4 mps 766 mmHg 34%
12:00 +22°C° 0 mm 4 mps 766 mmHg 32%
13:00 +22°C° 0 mm 4 mps 766 mmHg 33%
14:00 +22°C° 0 mm 4 mps 766 mmHg 35%
15:00 +22°C° 0 mm 4 mps 766 mmHg 37%
16:00 +20°C° 0 mm 4 mps 766 mmHg 42%
17:00 +19°C° 0 mm 3 mps 765 mmHg 48%
18:00 +17°C° 0 mm 3 mps 765 mmHg 53%
19:00 +16°C° 0 mm 3 mps 766 mmHg 56%
20:00 +16°C° 0 mm 3 mps 766 mmHg 59%
21:00 +14°C° 0 mm 3 mps 766 mmHg 63%
22:00 +13°C° 0 mm 3 mps 766 mmHg 64%
23:00 +13°C° 0 mm 3 mps 766 mmHg 65%

Tomorrow, 2 October, Friday

Time Temperature Precipitation Wind Pressure Humidity
00:00 +12°C° 0 mm 3 mps 766 mmHg 66%
01:00 +12°C° 0 mm 3 mps 766 mmHg 66%
02:00 +12°C° 0 mm 3 mps 766 mmHg 67%
03:00 +11°C° 0 mm 3 mps 766 mmHg 67%
04:00 +11°C° 0 mm 3 mps 766 mmHg 67%
05:00 +10°C° 0 mm 3 mps 766 mmHg 67%
06:00 +10°C° 0 mm 3 mps 766 mmHg 68%
07:00 +12°C° 0 mm 3 mps 766 mmHg 60%
08:00 +14°C° 0 mm 3 mps 766 mmHg 52%
09:00 +17°C° 0 mm 4 mps 766 mmHg 44%
10:00 +18°C° 0 mm 4 mps 766 mmHg 41%
11:00 +19°C° 0 mm 4 mps 766 mmHg 37%
12:00 +21°C° 0 mm 4 mps 766 mmHg 33%
13:00 +21°C° 0 mm 4 mps 766 mmHg 33%
14:00 +21°C° 0 mm 4 mps 766 mmHg 34%
15:00 +21°C° 0 mm 4 mps 765 mmHg 34%
16:00 +19°C° 0 mm 3 mps 765 mmHg 38%
17:00 +18°C° 0 mm 3 mps 765 mmHg 43%
18:00 +16°C° 0 mm 2 mps 765 mmHg 47%
19:00 +16°C° 0 mm 2 mps 766 mmHg 49%
20:00 +15°C° 0 mm 2 mps 766 mmHg 51%
21:00 +14°C° 0 mm 2 mps 766 mmHg 53%
22:00 +14°C° 0 mm 1 mps 766 mmHg 54%
23:00 +14°C° 0 mm 1 mps 766 mmHg 56%

Day after tomorrow, 3 October, Saturday

Time Temperature Precipitation Wind Pressure Humidity
00:00 +12°C° 0 mm 0 mps 766 mmHg 57%
01:00 +13°C° 0 mm 1 mps 766 mmHg 58%
02:00 +13°C° 0 mm 1 mps 766 mmHg 59%
03:00 +12°C° 0 mm 1 mps 766 mmHg 60%
04:00 +12°C° 0 mm 1 mps 766 mmHg 61%
05:00 +12°C° 0 mm 1 mps 766 mmHg 63%
06:00 +11°C° 0 mm 1 mps 766 mmHg 65%
07:00 +13°C° 0 mm 1 mps 766 mmHg 61%
08:00 +15°C° 0 mm 2 mps 766 mmHg 58%
09:00 +16°C° 0 mm 2 mps 766 mmHg 54%
10:00 +17°C° 0 mm 2 mps 766 mmHg 51%
11:00 +19°C° 0 mm 2 mps 766 mmHg 48%
12:00 +20°C° 0 mm 3 mps 766 mmHg 45%
13:00 +20°C° 0 mm 2 mps 765 mmHg 43%
14:00 +20°C° 0 mm 2 mps 765 mmHg 42%
15:00 +21°C° 0 mm 2 mps 765 mmHg 40%
16:00 +19°C° 0 mm 2 mps 765 mmHg 44%
17:00 +18°C° 0 mm 2 mps 765 mmHg 49%
18:00 +17°C° 0 mm 2 mps 765 mmHg 53%
19:00 +16°C° 0 mm 1 mps 765 mmHg 55%
20:00 +15°C° 0 mm 1 mps 765 mmHg 57%
21:00 +15°C° 0 mm 1 mps 765 mmHg 58%
22:00 +14°C° 0 mm 1 mps 765 mmHg 59%
23:00 +14°C° 0 mm 1 mps 765 mmHg 60%

4 October, Sunday

Time Temperature Precipitation Wind Pressure Humidity
00:00 +14°C° 0 mm 1 mps 765 mmHg 60%
01:00 +13°C° 0 mm 1 mps 765 mmHg 63%
02:00 +13°C° 0 mm 1 mps 765 mmHg 66%
03:00 +13°C° 0 mm 1 mps 765 mmHg 68%
04:00 +13°C° 0 mm 1 mps 765 mmHg 70%
05:00 +12°C° 0 mm 2 mps 765 mmHg 72%
06:00 +12°C° 0 mm 2 mps 766 mmHg 73%
07:00 +13°C° 0 mm 2 mps 766 mmHg 69%
08:00 +15°C° 0 mm 2 mps 766 mmHg 64%
09:00 +16°C° 0 mm 2 mps 766 mmHg 60%
10:00 +17°C° 0 mm 2 mps 766 mmHg 56%
11:00 +18°C° 0 mm 2 mps 766 mmHg 52%
12:00 +19°C° 0 mm 2 mps 765 mmHg 48%
13:00 +19°C° 0 mm 2 mps 765 mmHg 47%
14:00 +19°C° 0 mm 2 mps 765 mmHg 46%
15:00 +19°C° 0 mm 2 mps 765 mmHg 44%
16:00 +18°C° 0 mm 2 mps 765 mmHg 47%
17:00 +17°C° 0 mm 3 mps 765 mmHg 51%
18:00 +16°C° 0 mm 3 mps 765 mmHg 54%
19:00 +14°C° 0 mm 3 mps 765 mmHg 56%
20:00 +14°C° 0 mm 3 mps 765 mmHg 58%
21:00 +13°C° 0 mm 3 mps 765 mmHg 60%
22:00 +13°C° 0 mm 3 mps 765 mmHg 62%
23:00 +12°C° 0 mm 3 mps 765 mmHg 63%

5 October, Monday

Time Temperature Precipitation Wind Pressure Humidity
00:00 +12°C° 0 mm 3 mps 765 mmHg 65%
01:00 +11°C° 0 mm 3 mps 765 mmHg 64%
02:00 +11°C° 0 mm 3 mps 765 mmHg 64%
03:00 +10°C° 0 mm 3 mps 765 mmHg 63%
04:00 +10°C° 0 mm 3 mps 765 mmHg 65%
05:00 +9°C° 0 mm 3 mps 766 mmHg 66%
06:00 +9°C° 0 mm 3 mps 766 mmHg 67%
07:00 +10°C° 0 mm 3 mps 766 mmHg 64%
08:00 +11°C° 0 mm 3 mps 766 mmHg 61%
09:00 +12°C° 0 mm 3 mps 766 mmHg 58%
10:00 +13°C° 0 mm 3 mps 766 mmHg 54%
11:00 +14°C° 0 mm 3 mps 766 mmHg 51%
12:00 +16°C° 0 mm 2 mps 766 mmHg 47%
13:00 +16°C° 0 mm 2 mps 765 mmHg 45%
14:00 +16°C° 0 mm 2 mps 765 mmHg 43%
15:00 +17°C° 0 mm 2 mps 765 mmHg 42%
16:00 +15°C° 0 mm 2 mps 765 mmHg 45%
17:00 +14°C° 0 mm 2 mps 765 mmHg 48%
18:00 +13°C° 0 mm 2 mps 765 mmHg 52%
19:00 +12°C° 0 mm 2 mps 765 mmHg 53%
20:00 +12°C° 0 mm 2 mps 765 mmHg 54%
21:00 +10°C° 0 mm 2 mps 765 mmHg 56%
22:00 +10°C° 0 mm 2 mps 765 mmHg 58%
23:00 +9°C° 0 mm 2 mps 765 mmHg 61%

6 October, Tuesday

Time Temperature Precipitation Wind Pressure Humidity
00:00 +9°C° 0 mm 2 mps 765 mmHg 63%
01:00 +9°C° 0 mm 1 mps 765 mmHg 66%
02:00 +9°C° 0 mm 1 mps 765 mmHg 69%
03:00 +9°C° 0 mm 1 mps 765 mmHg 71%
04:00 +8°C° 0 mm 1 mps 766 mmHg 73%
05:00 +8°C° 0 mm 1 mps 766 mmHg 75%
06:00 +8°C° 0 mm 1 mps 766 mmHg 77%
07:00 +9°C° 0 mm 1 mps 766 mmHg 70%
08:00 +11°C° 0 mm 1 mps 766 mmHg 63%
09:00 +13°C° 0 mm 1 mps 766 mmHg 56%
10:00 +14°C° 0 mm 1 mps 766 mmHg 51%
11:00 +15°C° 0 mm 1 mps 766 mmHg 47%
12:00 +18°C° 0 mm 1 mps 766 mmHg 42%
13:00 +16°C° 0 mm 0 mps 765 mmHg 40%
14:00 +16°C° 0 mm 0 mps 765 mmHg 38%
15:00 +16°C° 0 mm 0 mps 765 mmHg 36%
16:00 +15°C° 0 mm 0 mps 765 mmHg 40%
17:00 +14°C° 0 mm 0 mps 765 mmHg 43%
18:00 +12°C° 0 mm 0 mps 765 mmHg 47%
19:00 +12°C° 0 mm 0 mps 765 mmHg 48%
20:00 +11°C° 0 mm 0 mps 765 mmHg 50%
21:00 +11°C° 0 mm 0 mps 765 mmHg 51%
22:00 +11°C° 0 mm 0 mps 765 mmHg 53%
23:00 +11°C° 0 mm 1 mps 765 mmHg 54%
Show more